Regional Weather Roundup
Issued by NWS Kansas City/Pleasant Hill, MO

Home | Current Version | Previous Version | Text Only | Print | Product List | Glossary On
Versions: 1 2 3 4 5 6 7 8 9 10 11 12 13 14 15 16 17 18 19 20 21 22 23 24 25 26 27 28 29 30 31 32 33 34 35 36 37 38 39 40 41 42 43 44 45 46 47 48 49 50
000
ASUS43 KEAX 251510
RWREAX

WEATHER ROUNDUP FOR EASTERN KANSAS AND NORTHWEST MISSOURI
NATIONAL WEATHER SERVICE KANSAS CITY/PLEASANT HILL MO
1000 AM CDT SAT OCT 25 2014

KSZ040-057-103>105-MOZ028-029-037-043-251600-
...KANSAS CITY METROPOLITAN AREA...

CITY           SKY/WX    TMP DP  RH WIND       PRES   REMARKS
K.C. INTL      FOG       60  59  96 NE7       30.09R VSB 1
K.C. DOWNTOWN  FOG       58  58 100 CALM      30.07S VSB<1/4
LEES SUMMIT      N/A     64  62  93 N3        30.08R FOG
OLATHE - IXD   FOG       57  56  96 SW5       30.09R VSB 1
OLATHE - OJC   SUNNY     61  61 100 CALM      30.07R FOG
LAWRENCE       FOG       56  55  97 CALM      30.09R VSB<1/4

$$

MOZ001>008-011>017-020>025-030>033-038>040-044>046-053-054-251600-
...NORTHERN AND CENTRAL MISSOURI...

CITY           SKY/WX    TMP DP  RH WIND       PRES   REMARKS
ST. JOSEPH     FOG       55  55 100 N7        30.10R VSB 1/4
MOSBY          FOG       55  55 100 CALM      30.09R VSB<1/4
WHITEMAN AFB   MOSUNNY   64  61  90 W2        30.06S
CLINTON        SUNNY     64  63  94 SW6       30.09R FOG
SEDALIA        CLOUDY    62  60  93 SW6       30.07F FOG
WARSAW         NOT AVBL
MARSHALL       FOG       63  63 100 CALM      30.09R VSB<1/4
CHILLICOTHE      N/A     57  56  96 CALM      30.11R
MOBERLY        FOG       61  57  88 CALM      30.08R VSB<1/4
KIRKSVILLE     SUNNY     65  54  67 N6        30.08R

$$

MOZ041-047>049-056>058-063>065-088>090-097-251600-
...EASTERN AND SOUTHERN MISSOURI...

CITY           SKY/WX    TMP DP  RH WIND       PRES   REMARKS
ST. LOUIS INTL MOSUNNY   69  62  78 W3        30.05S
SPIRIT OF STL  SUNNY     66  60  81 CALM      30.04S
COLUMBIA       SUNNY     65  62  90 W3        30.06S
JEFFERSON CITY SUNNY     61  60  97 CALM      30.06F
MEXICO         SUNNY    N/A N/A N/A NW5       30.06S
HANNIBAL       LGT SNOW  63  61  94 NW5       30.06S VSB 3/4
ROLLA          SUNNY     65  60  84 NW9       30.07R
LEBANON        SUNNY     68  61  77 W6        30.10R
OSAGE BEACH    SUNNY     64  59  82 NW5       30.09R
SPRINGFIELD    SUNNY     69  60  73 W9        30.09S
BRANSON        SUNNY     72  61  68 SW5       30.13R
NEVADA         SUNNY     66  61  82 SW5       30.10S
JOPLIN         SUNNY     69  61  75 SW8       30.11R
WEST PLAINS    SUNNY     66  60  81 W8        30.11R

$$

IAZ060-094-KSZ022-034>040-054-083-096-NEZ052-066-093-251600-
...KANSAS...SOUTHEAST NEBRASKA AND IOWA...

CITY           SKY/WX    TMP DP  RH WIND       PRES   REMARKS
TOPEKA         FOG       57  57 100 CALM      30.09R VSB<1/4
MANHATTAN      FOG       57  57 100 CALM      30.08S VSB 1/4
EMPORIA        SUNNY     62  61  96 CALM      30.08S
CHANUTE        SUNNY     63  63 100 S3        30.09R FOG
WICHITA        SUNNY     63  61  93 CALM      30.08R FOG
OMAHA          MOSUNNY   54  48  80 N6        30.13R
LINCOLN        SUNNY     56  49  77 N5        30.13R
FALLS CITY     SUNNY     60  56  86 CALM      30.09R
LAMONI           N/A     59  48  67 N8        30.10R
DES MOINES     MOSUNNY   61  45  55 N7        30.10R

$$




USA.gov is the U.S. government's official web portal to all federal, state and local government web resources and services.